Tracking 25709 objects as of 25-May-2022
HD Live streaming from Space Station
objects crossing your sky now

ONEWEB-0359

Track ONEWEB-0359 now!
10-day predictions
ONEWEB-0359 is classified as:


NORAD ID: 49285
Int'l Code: 2021-090G
Perigee: 607.4 km
Apogee: 611.1 km
Inclination: 87.5 °
Period: 96.7 minutes
Semi major axis: 6980 km
RCS: Unknown
Launch date: October 14, 2021
Source: United Kingdom (UK)
Launch site: VOSTOCHNY COSMODROME (VOSTO)
aabbcc
Your satellite tracking list
Your tracking list is empty




NASA's NSSDC Master Catalog

Two Line Element Set (TLE):
1 49285U 21090G   22144.51923460  .00003073  00000-0  32701-3 0  9992
2 49285  87.5261 218.7116 0002640 124.9405 235.2070 14.88656677 33162
Source of the keplerian elements: AFSPC